owner,sensor,date,latitude,longitude,vertical_datum,mass_concentration_of_oxygen_in_sea_water,qcFlag 
DISL,ioos:station:DISL:KATA:1,2011-06-01T00:00:00Z,30.2583,-88.2131,3.953,7.39,1111122 
DISL,ioos:station:DISL:KATA:1,2011-06-01T00:30:00Z,30.2583,-88.2131,3.941,7.25,1111122 
DISL,ioos:station:DISL:KATA:1,2011-06-01T01:00:00Z,30.2583,-88.2131,3.942,7.23,1111122 
DISL,ioos:station:DISL:KATA:1,2011-06-01T01:30:00Z,30.2583,-88.2131,3.934,7.16,1111122 
DISL,ioos:station:DISL:KATA:1,2011-06-01T02:00:00Z,30.2583,-88.2131,3.929,7.1,1111122 
DISL,ioos:station:DISL:KATA:1,2011-06-01T02:30:00Z,30.2583,-88.2131,3.936,7.08,1111122 
DISL,ioos:station:DISL:KATA:1,2011-06-01T03:00:00Z,30.2583,-88.2131,3.96,6.95,1111122 
DISL,ioos:station:DISL:KATA:1,2011-06-01T03:30:00Z,30.2583,-88.2131,3.981,7.09,1111122 
DISL,ioos:station:DISL:KATA:1,2011-06-01T04:00:00Z,30.2583,-88.2131,4.007,7.0,1111122 
DISL,ioos:station:DISL:KATA:1,2011-06-01T04:30:00Z,30.2583,-88.2131,4.039,7.04,1111122 
DISL,ioos:station:DISL:KATA:1,2011-06-01T05:00:00Z,30.2583,-88.2131,4.073,6.71,1111122 
DISL,ioos:station:DISL:KATA:1,2011-06-01T05:30:00Z,30.2583,-88.2131,4.098,6.62,1111122 
DISL,ioos:station:DISL:KATA:1,2011-06-01T06:00:00Z,30.2583,-88.2131,4.129,6.63,1111122 
DISL,ioos:station:DISL:KATA:1,2011-06-01T06:30:00Z,30.2583,-88.2131,4.154,6.71,1111122 
DISL,ioos:station:DISL:KATA:1,2011-06-01T07:00:00Z,30.2583,-88.2131,4.181,6.58,1111122 
DISL,ioos:station:DISL:KATA:1,2011-06-01T07:30:00Z,30.2583,-88.2131,4.202,6.59,1111122 
DISL,ioos:station:DISL:KATA:1,2011-06-01T08:00:00Z,30.2583,-88.2131,4.227,6.57,1111122 
DISL,ioos:station:DISL:KATA:1,2011-06-01T08:30:00Z,30.2583,-88.2131,4.255,6.47,1111122 
DISL,ioos:station:DISL:KATA:1,2011-06-01T09:00:00Z,30.2583,-88.2131,4.275,6.27,1111122 
DISL,ioos:station:DISL:KATA:1,2011-06-01T09:30:00Z,30.2583,-88.2131,4.299,6.21,1111122 
DISL,ioos:station:DISL:KATA:1,2011-06-01T10:00:00Z,30.2583,-88.2131,4.325,6.21,1111122 
DISL,ioos:station:DISL:KATA:1,2011-06-01T10:30:00Z,30.2583,-88.2131,4.348,6.03,1111122 
DISL,ioos:station:DISL:KATA:1,2011-06-01T11:00:00Z,30.2583,-88.2131,4.379,6.14,1111122 
DISL,ioos:station:DISL:KATA:1,2011-06-01T11:30:00Z,30.2583,-88.2131,4.415,5.84,1111122 
DISL,ioos:station:DISL:KATA:1,2011-06-01T12:00:00Z,30.2583,-88.2131,4.458,5.71,1111122 
DISL,ioos:station:DISL:KATA:1,2011-06-01T12:30:00Z,30.2583,-88.2131,4.494,5.62,1111122 
DISL,ioos:station:DISL:KATA:1,2011-06-01T13:00:00Z,30.2583,-88.2131,4.521,5.58,1111122 
DISL,ioos:station:DISL:KATA:1,2011-06-01T13:30:00Z,30.2583,-88.2131,4.534,5.63,1111122 
DISL,ioos:station:DISL:KATA:1,2011-06-01T14:00:00Z,30.2583,-88.2131,4.548,5.63,1111122 
DISL,ioos:station:DISL:KATA:1,2011-06-01T14:30:00Z,30.2583,-88.2131,4.542,5.45,1111122 
DISL,ioos:station:DISL:KATA:1,2011-06-01T15:00:00Z,30.2583,-88.2131,4.531,5.42,1111122 
DISL,ioos:station:DISL:KATA:1,2011-06-01T15:30:00Z,30.2583,-88.2131,4.51,5.03,1111122 
DISL,ioos:station:DISL:KATA:1,2011-06-01T16:00:00Z,30.2583,-88.2131,4.485,5.07,1111122 
DISL,ioos:station:DISL:KATA:1,2011-06-01T16:30:00Z,30.2583,-88.2131,4.46,4.97,1111122 
DISL,ioos:station:DISL:KATA:1,2011-06-01T17:00:00Z,30.2583,-88.2131,4.42,4.95,1111122 
DISL,ioos:station:DISL:KATA:1,2011-06-01T17:30:00Z,30.2583,-88.2131,4.393,5.04,1111122 
DISL,ioos:station:DISL:KATA:1,2011-06-01T18:00:00Z,30.2583,-88.2131,4.377,4.95,1111122 
DISL,ioos:station:DISL:KATA:1,2011-06-01T18:30:00Z,30.2583,-88.2131,4.341,5.14,1111122 
DISL,ioos:station:DISL:KATA:1,2011-06-01T19:00:00Z,30.2583,-88.2131,4.298,5.38,1111122 
DISL,ioos:station:DISL:KATA:1,2011-06-01T19:30:00Z,30.2583,-88.2131,4.265,5.57,1111122 
DISL,ioos:station:DISL:KATA:1,2011-06-01T20:00:00Z,30.2583,-88.2131,4.218,5.76,1111122 
DISL,ioos:station:DISL:KATA:1,2011-06-01T20:30:00Z,30.2583,-88.2131,4.158,5.89,1111122 
DISL,ioos:station:DISL:KATA:1,2011-06-01T21:00:00Z,30.2583,-88.2131,4.102,6.23,1111122 
DISL,ioos:station:DISL:KATA:1,2011-06-01T21:30:00Z,30.2583,-88.2131,4.053,6.67,1111122 
DISL,ioos:station:DISL:KATA:1,2011-06-01T22:00:00Z,30.2583,-88.2131,4.0,7.02,1111122 
DISL,ioos:station:DISL:KATA:1,2011-06-01T22:30:00Z,30.2583,-88.2131,3.939,7.41,1111122 
DISL,ioos:station:DISL:KATA:1,2011-06-01T23:00:00Z,30.2583,-88.2131,3.888,7.42,1111122 
DISL,ioos:station:DISL:KATA:1,2011-06-01T23:30:00Z,30.2583,-88.2131,3.844,7.48,1111122 
DISL,ioos:station:DISL:KATA:1,2011-06-02T00:00:00Z,30.2583,-88.2131,3.818,7.4,1111122 
DISL,ioos:station:DISL:KATA:1,2011-06-02T00:30:00Z,30.2583,-88.2131,3.795,7.49,1111122 
DISL,ioos:station:DISL:KATA:1,2011-06-02T01:00:00Z,30.2583,-88.2131,3.783,7.52,1111122 
DISL,ioos:station:DISL:KATA:1,2011-06-02T01:30:00Z,30.2583,-88.2131,3.785,7.49,1111122 
DISL,ioos:station:DISL:KATA:1,2011-06-02T02:00:00Z,30.2583,-88.2131,3.796,7.34,1111122 
DISL,ioos:station:DISL:KATA:1,2011-06-02T02:30:00Z,30.2583,-88.2131,3.803,7.38,1111122 
DISL,ioos:station:DISL:KATA:1,2011-06-02T03:00:00Z,30.2583,-88.2131,3.801,7.07,1111122 
DISL,ioos:station:DISL:KATA:1,2011-06-02T03:30:00Z,30.2583,-88.2131,3.821,6.41,1111122 
DISL,ioos:station:DISL:KATA:1,2011-06-02T04:00:00Z,30.2583,-88.2131,3.856,6.37,1111122 
DISL,ioos:station:DISL:KATA:1,2011-06-02T04:30:00Z,30.2583,-88.2131,3.857,6.48,1111122 
DISL,ioos:station:DISL:KATA:1,2011-06-02T05:00:00Z,30.2583,-88.2131,3.877,6.49,1111122 
DISL,ioos:station:DISL:KATA:1,2011-06-02T05:30:00Z,30.2583,-88.2131,3.887,6.6,1111122 
DISL,ioos:station:DISL:KATA:1,2011-06-02T06:00:00Z,30.2583,-88.2131,3.919,6.73,1111122 
DISL,ioos:station:DISL:KATA:1,2011-06-02T06:30:00Z,30.2583,-88.2131,3.933,6.57,1111122 
DISL,ioos:station:DISL:KATA:1,2011-06-02T07:00:00Z,30.2583,-88.2131,3.978,6.38,1111122 
DISL,ioos:station:DISL:KATA:1,2011-06-02T07:30:00Z,30.2583,-88.2131,4.012,6.19,1111122 
DISL,ioos:station:DISL:KATA:1,2011-06-02T08:00:00Z,30.2583,-88.2131,4.049,6.34,1111122 
DISL,ioos:station:DISL:KATA:1,2011-06-02T08:30:00Z,30.2583,-88.2131,4.064,6.48,1111122 
DISL,ioos:station:DISL:KATA:1,2011-06-02T09:00:00Z,30.2583,-88.2131,4.083,6.61,1111122 
DISL,ioos:station:DISL:KATA:1,2011-06-02T09:30:00Z,30.2583,-88.2131,4.114,6.62,1111122 
DISL,ioos:station:DISL:KATA:1,2011-06-02T10:00:00Z,30.2583,-88.2131,4.126,6.44,1111122 
DISL,ioos:station:DISL:KATA:1,2011-06-02T10:30:00Z,30.2583,-88.2131,4.156,6.58,1111122 
DISL,ioos:station:DISL:KATA:1,2011-06-02T11:00:00Z,30.2583,-88.2131,4.232,6.39,1111122 
DISL,ioos:station:DISL:KATA:1,2011-06-02T11:30:00Z,30.2583,-88.2131,4.313,6.49,1111122 
DISL,ioos:station:DISL:KATA:1,2011-06-02T12:00:00Z,30.2583,-88.2131,4.38,6.38,1111122 
DISL,ioos:station:DISL:KATA:1,2011-06-02T12:30:00Z,30.2583,-88.2131,4.437,6.22,1111122 
DISL,ioos:station:DISL:KATA:1,2011-06-02T13:00:00Z,30.2583,-88.2131,4.495,6.17,1111122 
DISL,ioos:station:DISL:KATA:1,2011-06-02T13:30:00Z,30.2583,-88.2131,4.529,6.06,1111122 
DISL,ioos:station:DISL:KATA:1,2011-06-02T14:00:00Z,30.2583,-88.2131,4.55,6.02,1111122 
DISL,ioos:station:DISL:KATA:1,2011-06-02T14:30:00Z,30.2583,-88.2131,4.573,6.01,1111122 
DISL,ioos:station:DISL:KATA:1,2011-06-02T15:00:00Z,30.2583,-88.2131,4.569,5.97,1111122 
DISL,ioos:station:DISL:KATA:1,2011-06-02T15:30:00Z,30.2583,-88.2131,4.568,5.99,1111122 
DISL,ioos:station:DISL:KATA:1,2011-06-02T16:00:00Z,30.2583,-88.2131,4.562,5.89,1111122 
DISL,ioos:station:DISL:KATA:1,2011-06-02T16:30:00Z,30.2583,-88.2131,4.532,5.99,1111122 
DISL,ioos:station:DISL:KATA:1,2011-06-02T17:00:00Z,30.2583,-88.2131,4.486,5.92,1111122 
DISL,ioos:station:DISL:KATA:1,2011-06-02T17:30:00Z,30.2583,-88.2131,4.438,5.82,1111122 
DISL,ioos:station:DISL:KATA:1,2011-06-02T18:00:00Z,30.2583,-88.2131,4.403,5.9,1111122 
DISL,ioos:station:DISL:KATA:1,2011-06-02T18:30:00Z,30.2583,-88.2131,4.372,5.9,1111122 
DISL,ioos:station:DISL:KATA:1,2011-06-02T19:00:00Z,30.2583,-88.2131,4.331,5.99,1111122 
DISL,ioos:station:DISL:KATA:1,2011-06-02T19:30:00Z,30.2583,-88.2131,4.296,6.02,1111122 
DISL,ioos:station:DISL:KATA:1,2011-06-02T20:00:00Z,30.2583,-88.2131,4.245,6.05,1111122 
DISL,ioos:station:DISL:KATA:1,2011-06-02T20:30:00Z,30.2583,-88.2131,4.2,6.29,1111122 
DISL,ioos:station:DISL:KATA:1,2011-06-02T21:00:00Z,30.2583,-88.2131,4.144,6.44,1111122 
DISL,ioos:station:DISL:KATA:1,2011-06-02T21:30:00Z,30.2583,-88.2131,4.085,6.76,1111122 
DISL,ioos:station:DISL:KATA:1,2011-06-02T22:00:00Z,30.2583,-88.2131,4.031,6.99,1111122 
DISL,ioos:station:DISL:KATA:1,2011-06-02T22:30:00Z,30.2583,-88.2131,3.976,7.36,1111122 
DISL,ioos:station:DISL:KATA:1,2011-06-02T23:00:00Z,30.2583,-88.2131,3.934,7.38,1111122 
DISL,ioos:station:DISL:KATA:1,2011-06-02T23:30:00Z,30.2583,-88.2131,3.891,7.39,1111122 
DISL,ioos:station:DISL:KATA:1,2011-06-03T00:00:00Z,30.2583,-88.2131,3.87,7.43,1111122 
DISL,ioos:station:DISL:KATA:1,2011-06-03T00:30:00Z,30.2583,-88.2131,3.85,7.46,1111122 
DISL,ioos:station:DISL:KATA:1,2011-06-03T01:00:00Z,30.2583,-88.2131,3.838,7.38,1111122 
DISL,ioos:station:DISL:KATA:1,2011-06-03T01:30:00Z,30.2583,-88.2131,3.837,7.26,1111122 
DISL,ioos:station:DISL:KATA:1,2011-06-03T02:00:00Z,30.2583,-88.2131,3.847,7.17,1111122 
DISL,ioos:station:DISL:KATA:1,2011-06-03T02:30:00Z,30.2583,-88.2131,3.861,7.08,1111122 
DISL,ioos:station:DISL:KATA:1,2011-06-03T03:00:00Z,30.2583,-88.2131,3.871,7.08,1111122 
DISL,ioos:station:DISL:KATA:1,2011-06-03T03:30:00Z,30.2583,-88.2131,3.9,6.97,1111122 
DISL,ioos:station:DISL:KATA:1,2011-06-03T04:00:00Z,30.2583,-88.2131,3.911,6.75,1111122 
DISL,ioos:station:DISL:KATA:1,2011-06-03T04:30:00Z,30.2583,-88.2131,3.934,6.56,1111122 
DISL,ioos:station:DISL:KATA:1,2011-06-03T05:00:00Z,30.2583,-88.2131,3.945,6.44,1111122 
DISL,ioos:station:DISL:KATA:1,2011-06-03T05:30:00Z,30.2583,-88.2131,3.956,6.45,1111122 
DISL,ioos:station:DISL:KATA:1,2011-06-03T06:00:00Z,30.2583,-88.2131,3.98,6.67,1111122 
DISL,ioos:station:DISL:KATA:1,2011-06-03T06:30:00Z,30.2583,-88.2131,4.007,6.67,1111122 
DISL,ioos:station:DISL:KATA:1,2011-06-03T07:00:00Z,30.2583,-88.2131,4.041,6.61,1111122 
DISL,ioos:station:DISL:KATA:1,2011-06-03T07:30:00Z,30.2583,-88.2131,4.075,6.65,1111122 
DISL,ioos:station:DISL:KATA:1,2011-06-03T08:00:00Z,30.2583,-88.2131,4.1,6.56,1111122 
DISL,ioos:station:DISL:KATA:1,2011-06-03T08:30:00Z,30.2583,-88.2131,4.128,6.63,1111122 
DISL,ioos:station:DISL:KATA:1,2011-06-03T09:00:00Z,30.2583,-88.2131,4.155,6.58,1111122 
DISL,ioos:station:DISL:KATA:1,2011-06-03T09:30:00Z,30.2583,-88.2131,4.193,6.59,1111122 
DISL,ioos:station:DISL:KATA:1,2011-06-03T10:00:00Z,30.2583,-88.2131,4.218,6.47,1111122 
DISL,ioos:station:DISL:KATA:1,2011-06-03T10:30:00Z,30.2583,-88.2131,4.253,6.43,1111122 
DISL,ioos:station:DISL:KATA:1,2011-06-03T11:00:00Z,30.2583,-88.2131,4.286,6.27,1111122 
DISL,ioos:station:DISL:KATA:1,2011-06-03T11:30:00Z,30.2583,-88.2131,4.323,6.12,1111122 
DISL,ioos:station:DISL:KATA:1,2011-06-03T12:00:00Z,30.2583,-88.2131,4.368,5.99,1111122 
DISL,ioos:station:DISL:KATA:1,2011-06-03T12:30:00Z,30.2583,-88.2131,4.41,5.89,1111122 
DISL,ioos:station:DISL:KATA:1,2011-06-03T13:00:00Z,30.2583,-88.2131,4.449,6.0,1111122 
DISL,ioos:station:DISL:KATA:1,2011-06-03T13:30:00Z,30.2583,-88.2131,4.486,5.92,1111122 
DISL,ioos:station:DISL:KATA:1,2011-06-03T14:00:00Z,30.2583,-88.2131,4.512,5.85,1111122 
DISL,ioos:station:DISL:KATA:1,2011-06-03T14:30:00Z,30.2583,-88.2131,4.539,5.74,1111122 
DISL,ioos:station:DISL:KATA:1,2011-06-03T15:00:00Z,30.2583,-88.2131,4.563,5.66,1111122 
DISL,ioos:station:DISL:KATA:1,2011-06-03T15:30:00Z,30.2583,-88.2131,4.578,5.67,1111122 
DISL,ioos:station:DISL:KATA:1,2011-06-03T16:00:00Z,30.2583,-88.2131,4.587,5.61,1111122 
DISL,ioos:station:DISL:KATA:1,2011-06-03T16:30:00Z,30.2583,-88.2131,4.577,5.47,1111122 
DISL,ioos:station:DISL:KATA:1,2011-06-03T17:00:00Z,30.2583,-88.2131,4.555,5.37,1111122 
DISL,ioos:station:DISL:KATA:1,2011-06-03T17:30:00Z,30.2583,-88.2131,4.523,5.04,1111122 
DISL,ioos:station:DISL:KATA:1,2011-06-03T18:00:00Z,30.2583,-88.2131,4.487,4.83,1111122 
DISL,ioos:station:DISL:KATA:1,2011-06-03T18:30:00Z,30.2583,-88.2131,4.453,4.99,1111122 
DISL,ioos:station:DISL:KATA:1,2011-06-03T19:00:00Z,30.2583,-88.2131,4.418,5.1,1111122 
DISL,ioos:station:DISL:KATA:1,2011-06-03T19:30:00Z,30.2583,-88.2131,4.384,5.14,1111122 
DISL,ioos:station:DISL:KATA:1,2011-06-03T20:00:00Z,30.2583,-88.2131,4.349,5.24,1111122 
DISL,ioos:station:DISL:KATA:1,2011-06-03T20:30:00Z,30.2583,-88.2131,4.309,5.3,1111122 
DISL,ioos:station:DISL:KATA:1,2011-06-03T21:00:00Z,30.2583,-88.2131,4.257,5.46,1111122 
DISL,ioos:station:DISL:KATA:1,2011-06-03T21:30:00Z,30.2583,-88.2131,4.215,5.87,1111122 
DISL,ioos:station:DISL:KATA:1,2011-06-03T22:00:00Z,30.2583,-88.2131,4.167,6.12,1111122 
DISL,ioos:station:DISL:KATA:1,2011-06-03T22:30:00Z,30.2583,-88.2131,4.123,6.39,1111122 
DISL,ioos:station:DISL:KATA:1,2011-06-03T23:00:00Z,30.2583,-88.2131,4.08,6.61,1111122 
DISL,ioos:station:DISL:KATA:1,2011-06-03T23:30:00Z,30.2583,-88.2131,4.034,6.85,1111122 
DISL,ioos:station:DISL:KATA:1,2011-06-04T00:00:00Z,30.2583,-88.2131,3.996,7.04,1111122 
DISL,ioos:station:DISL:KATA:1,2011-06-04T00:30:00Z,30.2583,-88.2131,3.96,7.18,1111122 
DISL,ioos:station:DISL:KATA:1,2011-06-04T01:00:00Z,30.2583,-88.2131,3.942,7.34,1111122 
DISL,ioos:station:DISL:KATA:1,2011-06-04T01:30:00Z,30.2583,-88.2131,3.907,7.43,1111122 
DISL,ioos:station:DISL:KATA:1,2011-06-04T02:00:00Z,30.2583,-88.2131,3.874,7.41,1111122 
DISL,ioos:station:DISL:KATA:1,2011-06-04T02:30:00Z,30.2583,-88.2131,3.864,7.37,1111122 
DISL,ioos:station:DISL:KATA:1,2011-06-04T03:00:00Z,30.2583,-88.2131,3.864,7.33,1111122 
DISL,ioos:station:DISL:KATA:1,2011-06-04T03:30:00Z,30.2583,-88.2131,3.874,7.3,1111122 
DISL,ioos:station:DISL:KATA:1,2011-06-04T04:00:00Z,30.2583,-88.2131,3.872,7.23,1111122 
DISL,ioos:station:DISL:KATA:1,2011-06-04T04:30:00Z,30.2583,-88.2131,3.886,7.15,1111122 
DISL,ioos:station:DISL:KATA:1,2011-06-04T05:00:00Z,30.2583,-88.2131,3.878,7.12,1111122 
DISL,ioos:station:DISL:KATA:1,2011-06-04T05:30:00Z,30.2583,-88.2131,3.928,7.01,1111122 
DISL,ioos:station:DISL:KATA:1,2011-06-04T06:00:00Z,30.2583,-88.2131,3.939,6.9,1111122 
DISL,ioos:station:DISL:KATA:1,2011-06-04T06:30:00Z,30.2583,-88.2131,3.974,6.78,1111122 
DISL,ioos:station:DISL:KATA:1,2011-06-04T07:00:00Z,30.2583,-88.2131,4.005,6.85,1111122 
DISL,ioos:station:DISL:KATA:1,2011-06-04T07:30:00Z,30.2583,-88.2131,4.032,6.87,1111122 
DISL,ioos:station:DISL:KATA:1,2011-06-04T08:00:00Z,30.2583,-88.2131,4.065,6.78,1111122 
DISL,ioos:station:DISL:KATA:1,2011-06-04T08:30:00Z,30.2583,-88.2131,4.107,6.88,1111122 
DISL,ioos:station:DISL:KATA:1,2011-06-04T09:00:00Z,30.2583,-88.2131,4.152,6.85,1111122 
DISL,ioos:station:DISL:KATA:1,2011-06-04T09:30:00Z,30.2583,-88.2131,4.198,6.54,1111122 
DISL,ioos:station:DISL:KATA:1,2011-06-04T10:00:00Z,30.2583,-88.2131,4.228,6.48,1111122 
DISL,ioos:station:DISL:KATA:1,2011-06-04T10:30:00Z,30.2583,-88.2131,4.258,6.37,1111122 
DISL,ioos:station:DISL:KATA:1,2011-06-04T11:00:00Z,30.2583,-88.2131,4.286,6.41,1111122 
DISL,ioos:station:DISL:KATA:1,2011-06-04T11:30:00Z,30.2583,-88.2131,4.288,6.37,1111122 
DISL,ioos:station:DISL:KATA:1,2011-06-04T12:00:00Z,30.2583,-88.2131,4.321,6.44,1111122 
DISL,ioos:station:DISL:KATA:1,2011-06-04T12:30:00Z,30.2583,-88.2131,4.356,6.36,1111122 
DISL,ioos:station:DISL:KATA:1,2011-06-04T13:00:00Z,30.2583,-88.2131,4.387,6.16,1111122 
DISL,ioos:station:DISL:KATA:1,2011-06-04T13:30:00Z,30.2583,-88.2131,4.421,6.05,1111122 
DISL,ioos:station:DISL:KATA:1,2011-06-04T14:00:00Z,30.2583,-88.2131,4.465,6.03,1111122 
DISL,ioos:station:DISL:KATA:1,2011-06-04T14:30:00Z,30.2583,-88.2131,4.506,5.95,1111122 
DISL,ioos:station:DISL:KATA:1,2011-06-04T15:00:00Z,30.2583,-88.2131,4.546,5.83,1111122 
DISL,ioos:station:DISL:KATA:1,2011-06-04T15:30:00Z,30.2583,-88.2131,4.566,5.57,1111122 
DISL,ioos:station:DISL:KATA:1,2011-06-04T16:00:00Z,30.2583,-88.2131,4.583,5.43,1111122 
DISL,ioos:station:DISL:KATA:1,2011-06-04T16:30:00Z,30.2583,-88.2131,4.576,5.82,1111122 
DISL,ioos:station:DISL:KATA:1,2011-06-04T17:00:00Z,30.2583,-88.2131,4.559,5.69,1111122 
DISL,ioos:station:DISL:KATA:1,2011-06-04T17:30:00Z,30.2583,-88.2131,4.54,5.53,1111122 
DISL,ioos:station:DISL:KATA:1,2011-06-04T18:00:00Z,30.2583,-88.2131,4.504,5.53,1111122 
DISL,ioos:station:DISL:KATA:1,2011-06-04T18:30:00Z,30.2583,-88.2131,4.484,5.22,1111122 
DISL,ioos:station:DISL:KATA:1,2011-06-04T19:00:00Z,30.2583,-88.2131,4.451,5.17,1111122 
DISL,ioos:station:DISL:KATA:1,2011-06-04T19:30:00Z,30.2583,-88.2131,4.44,5.49,1111122 
DISL,ioos:station:DISL:KATA:1,2011-06-04T20:00:00Z,30.2583,-88.2131,4.418,5.8,1111122 
DISL,ioos:station:DISL:KATA:1,2011-06-04T20:30:00Z,30.2583,-88.2131,4.394,5.78,1111122 
DISL,ioos:station:DISL:KATA:1,2011-06-04T21:00:00Z,30.2583,-88.2131,4.361,5.84,1111122 
DISL,ioos:station:DISL:KATA:1,2011-06-04T21:30:00Z,30.2583,-88.2131,4.332,5.98,1111122 
DISL,ioos:station:DISL:KATA:1,2011-06-04T22:00:00Z,30.2583,-88.2131,4.292,6.16,1111122 
DISL,ioos:station:DISL:KATA:1,2011-06-04T22:30:00Z,30.2583,-88.2131,4.234,5.98,1111122 
DISL,ioos:station:DISL:KATA:1,2011-06-04T23:00:00Z,30.2583,-88.2131,4.181,6.09,1111122 
DISL,ioos:station:DISL:KATA:1,2011-06-04T23:30:00Z,30.2583,-88.2131,4.142,5.72,1111122 
DISL,ioos:station:DISL:KATA:1,2011-06-05T00:00:00Z,30.2583,-88.2131,4.077,5.95,1111122 
DISL,ioos:station:DISL:KATA:1,2011-06-05T00:30:00Z,30.2583,-88.2131,4.008,6.65,1111122 
DISL,ioos:station:DISL:KATA:1,2011-06-05T01:00:00Z,30.2583,-88.2131,3.958,6.91,1111122 
DISL,ioos:station:DISL:KATA:1,2011-06-05T01:30:00Z,30.2583,-88.2131,3.913,7.05,1111122 
DISL,ioos:station:DISL:KATA:1,2011-06-05T02:00:00Z,30.2583,-88.2131,3.873,6.97,1111122 
DISL,ioos:station:DISL:KATA:1,2011-06-05T02:30:00Z,30.2583,-88.2131,3.848,6.94,1111122 
DISL,ioos:station:DISL:KATA:1,2011-06-05T03:00:00Z,30.2583,-88.2131,3.82,6.86,1111122 
DISL,ioos:station:DISL:KATA:1,2011-06-05T03:30:00Z,30.2583,-88.2131,3.805,6.81,1111122 
DISL,ioos:station:DISL:KATA:1,2011-06-05T04:00:00Z,30.2583,-88.2131,3.796,6.85,1111122 
DISL,ioos:station:DISL:KATA:1,2011-06-05T04:30:00Z,30.2583,-88.2131,3.803,6.88,1111122 
DISL,ioos:station:DISL:KATA:1,2011-06-05T05:00:00Z,30.2583,-88.2131,3.795,6.86,1111122 
DISL,ioos:station:DISL:KATA:1,2011-06-05T05:30:00Z,30.2583,-88.2131,3.808,6.78,1111122 
DISL,ioos:station:DISL:KATA:1,2011-06-05T06:00:00Z,30.2583,-88.2131,3.846,6.75,1111122 
DISL,ioos:station:DISL:KATA:1,2011-06-05T06:30:00Z,30.2583,-88.2131,3.834,6.7,1111122 
DISL,ioos:station:DISL:KATA:1,2011-06-05T07:00:00Z,30.2583,-88.2131,3.867,5.57,1111122 
DISL,ioos:station:DISL:KATA:1,2011-06-05T07:30:00Z,30.2583,-88.2131,3.906,6.17,1111122 
DISL,ioos:station:DISL:KATA:1,2011-06-05T08:00:00Z,30.2583,-88.2131,3.954,6.48,1111122 
DISL,ioos:station:DISL:KATA:1,2011-06-05T08:30:00Z,30.2583,-88.2131,3.999,6.45,1111122 
DISL,ioos:station:DISL:KATA:1,2011-06-05T09:00:00Z,30.2583,-88.2131,4.018,6.42,1111122 
DISL,ioos:station:DISL:KATA:1,2011-06-05T09:30:00Z,30.2583,-88.2131,4.059,6.48,1111122 
DISL,ioos:station:DISL:KATA:1,2011-06-05T10:00:00Z,30.2583,-88.2131,4.102,6.5,1111122 
DISL,ioos:station:DISL:KATA:1,2011-06-05T10:30:00Z,30.2583,-88.2131,4.134,6.35,1111122 
DISL,ioos:station:DISL:KATA:1,2011-06-05T11:00:00Z,30.2583,-88.2131,4.152,6.29,1111122 
DISL,ioos:station:DISL:KATA:1,2011-06-05T11:30:00Z,30.2583,-88.2131,4.191,6.13,1111122 
DISL,ioos:station:DISL:KATA:1,2011-06-05T12:00:00Z,30.2583,-88.2131,4.215,6.15,1111122 
DISL,ioos:station:DISL:KATA:1,2011-06-05T12:30:00Z,30.2583,-88.2131,4.251,6.04,1111122 
DISL,ioos:station:DISL:KATA:1,2011-06-05T13:00:00Z,30.2583,-88.2131,4.275,6.04,1111122 
DISL,ioos:station:DISL:KATA:1,2011-06-05T13:30:00Z,30.2583,-88.2131,4.301,5.87,1111122 
DISL,ioos:station:DISL:KATA:1,2011-06-05T14:00:00Z,30.2583,-88.2131,4.338,5.84,1111122 
DISL,ioos:station:DISL:KATA:1,2011-06-05T14:30:00Z,30.2583,-88.2131,4.366,5.8,1111122 
DISL,ioos:station:DISL:KATA:1,2011-06-05T15:00:00Z,30.2583,-88.2131,4.397,6.05,1111122 
DISL,ioos:station:DISL:KATA:1,2011-06-05T15:30:00Z,30.2583,-88.2131,4.417,6.11,1111122 
DISL,ioos:station:DISL:KATA:1,2011-06-05T16:00:00Z,30.2583,-88.2131,4.445,5.91,1111122 
DISL,ioos:station:DISL:KATA:1,2011-06-05T16:30:00Z,30.2583,-88.2131,4.456,5.9,1111122 
DISL,ioos:station:DISL:KATA:1,2011-06-05T17:00:00Z,30.2583,-88.2131,4.465,6.0,1111122 
DISL,ioos:station:DISL:KATA:1,2011-06-05T17:30:00Z,30.2583,-88.2131,4.463,5.81,1111122 
DISL,ioos:station:DISL:KATA:1,2011-06-05T18:00:00Z,30.2583,-88.2131,4.446,5.76,1111122 
DISL,ioos:station:DISL:KATA:1,2011-06-05T18:30:00Z,30.2583,-88.2131,4.432,5.8,1111122 
DISL,ioos:station:DISL:KATA:1,2011-06-05T19:00:00Z,30.2583,-88.2131,4.415,5.84,1111122 
DISL,ioos:station:DISL:KATA:1,2011-06-05T19:30:00Z,30.2583,-88.2131,4.404,5.98,1111122 
DISL,ioos:station:DISL:KATA:1,2011-06-05T20:00:00Z,30.2583,-88.2131,4.377,5.99,1111122 
DISL,ioos:station:DISL:KATA:1,2011-06-05T20:30:00Z,30.2583,-88.2131,4.376,5.82,1111122 
DISL,ioos:station:DISL:KATA:1,2011-06-05T21:00:00Z,30.2583,-88.2131,4.335,5.98,1111122 
DISL,ioos:station:DISL:KATA:1,2011-06-05T21:30:00Z,30.2583,-88.2131,4.269,6.04,1111122 
DISL,ioos:station:DISL:KATA:1,2011-06-05T22:00:00Z,30.2583,-88.2131,4.231,6.32,1111122 
DISL,ioos:station:DISL:KATA:1,2011-06-05T22:30:00Z,30.2583,-88.2131,4.192,6.57,1111122 
DISL,ioos:station:DISL:KATA:1,2011-06-05T23:00:00Z,30.2583,-88.2131,4.131,6.62,1111122 
DISL,ioos:station:DISL:KATA:1,2011-06-05T23:30:00Z,30.2583,-88.2131,4.073,7.0,1111122 
DISL,ioos:station:DISL:KATA:1,2011-06-06T00:00:00Z,30.2583,-88.2131,4.026,7.28,1111122 
DISL,ioos:station:DISL:KATA:1,2011-06-06T00:30:00Z,30.2583,-88.2131,3.98,7.4,1111122 
DISL,ioos:station:DISL:KATA:1,2011-06-06T01:00:00Z,30.2583,-88.2131,3.947,7.39,1111122 
DISL,ioos:station:DISL:KATA:1,2011-06-06T01:30:00Z,30.2583,-88.2131,3.925,7.35,1111122 
DISL,ioos:station:DISL:KATA:1,2011-06-06T02:00:00Z,30.2583,-88.2131,3.898,7.31,1111122 
DISL,ioos:station:DISL:KATA:1,2011-06-06T02:30:00Z,30.2583,-88.2131,3.893,7.31,1111122 
DISL,ioos:station:DISL:KATA:1,2011-06-06T03:00:00Z,30.2583,-88.2131,3.897,7.29,1111122 
DISL,ioos:station:DISL:KATA:1,2011-06-06T03:30:00Z,30.2583,-88.2131,3.894,7.23,1111122 
DISL,ioos:station:DISL:KATA:1,2011-06-06T04:00:00Z,30.2583,-88.2131,3.897,7.14,1111122 
DISL,ioos:station:DISL:KATA:1,2011-06-06T04:30:00Z,30.2583,-88.2131,3.912,7.04,1111122 
DISL,ioos:station:DISL:KATA:1,2011-06-06T05:00:00Z,30.2583,-88.2131,3.925,7.01,1111122 
DISL,ioos:station:DISL:KATA:1,2011-06-06T05:30:00Z,30.2583,-88.2131,3.923,6.69,1111122 
DISL,ioos:station:DISL:KATA:1,2011-06-06T06:00:00Z,30.2583,-88.2131,3.945,6.1,1111122 
DISL,ioos:station:DISL:KATA:1,2011-06-06T06:30:00Z,30.2583,-88.2131,3.958,6.51,1111122 
DISL,ioos:station:DISL:KATA:1,2011-06-06T07:00:00Z,30.2583,-88.2131,3.978,6.76,1111122 
DISL,ioos:station:DISL:KATA:1,2011-06-06T07:30:00Z,30.2583,-88.2131,3.999,6.81,1111122 
DISL,ioos:station:DISL:KATA:1,2011-06-06T08:00:00Z,30.2583,-88.2131,4.007,6.81,1111122 
DISL,ioos:station:DISL:KATA:1,2011-06-06T08:30:00Z,30.2583,-88.2131,4.034,6.67,1111122 
DISL,ioos:station:DISL:KATA:1,2011-06-06T09:00:00Z,30.2583,-88.2131,4.057,6.57,1111122 
DISL,ioos:station:DISL:KATA:1,2011-06-06T09:30:00Z,30.2583,-88.2131,4.094,4.51,1111122 
DISL,ioos:station:DISL:KATA:1,2011-06-06T10:00:00Z,30.2583,-88.2131,4.127,5.07,1111122 
DISL,ioos:station:DISL:KATA:1,2011-06-06T10:30:00Z,30.2583,-88.2131,4.16,5.41,1111122 
DISL,ioos:station:DISL:KATA:1,2011-06-06T11:00:00Z,30.2583,-88.2131,4.18,5.97,1111122 
DISL,ioos:station:DISL:KATA:1,2011-06-06T11:30:00Z,30.2583,-88.2131,4.198,5.39,1111122 
DISL,ioos:station:DISL:KATA:1,2011-06-06T12:00:00Z,30.2583,-88.2131,4.214,5.51,1111122 
DISL,ioos:station:DISL:KATA:1,2011-06-06T12:30:00Z,30.2583,-88.2131,4.23,5.55,1111122 
DISL,ioos:station:DISL:KATA:1,2011-06-06T13:00:00Z,30.2583,-88.2131,4.243,5.52,1111122 
DISL,ioos:station:DISL:KATA:1,2011-06-06T13:30:00Z,30.2583,-88.2131,4.273,5.23,1111122 
DISL,ioos:station:DISL:KATA:1,2011-06-06T14:00:00Z,30.2583,-88.2131,4.3,5.34,1111122 
DISL,ioos:station:DISL:KATA:1,2011-06-06T14:30:00Z,30.2583,-88.2131,4.333,5.36,1111122 
DISL,ioos:station:DISL:KATA:1,2011-06-06T15:00:00Z,30.2583,-88.2131,4.357,5.25,1111122 
DISL,ioos:station:DISL:KATA:1,2011-06-06T15:30:00Z,30.2583,-88.2131,4.394,5.0,1111122 